This is the latest recevied weather packets stored in our database for station/object KB1FFS. If no packets are shown the sender has not sent any weather packets the latest 1 day(s).
| Time | Temp. | Humidity | Pressure | Rain* | Wind** | Luminosity | Snow |
|---|---|---|---|---|---|---|---|
| 1778034602 | 20.56° C | 68% | 1009.1 hPa | 0 mm | 0.89 m/s, 118° | 0 W/m² | - |
| 1778034299 | 20.56° C | 68% | 1009.2 hPa | 0 mm | 0.89 m/s, 154° | 0 W/m² | - |
| 1778033997 | 20.56° C | 68% | 1009.3 hPa | 0 mm | 0.45 m/s, 75° | 0 W/m² | - |
| 1778033694 | 20.56° C | 68% | 1008.8 hPa | 0 mm | 0 m/s | 0 W/m² | - |
| 1778033391 | 20.56° C | 68% | 1008.7 hPa | 0 mm | 1.34 m/s, 135° | 0 W/m² | - |
| 1778033089 | 20.56° C | 67% | 1008.5 hPa | 0 mm | 0.45 m/s, 95° | 0 W/m² | - |
| 1778032786 | 20.56° C | 67% | 1008.8 hPa | 0 mm | 0.45 m/s, 122° | 0 W/m² | - |
| 1778032483 | 20.56° C | 67% | 1008.7 hPa | 0 mm | 0.45 m/s, 315° | 0 W/m² | - |
| 1778032180 | 20.56° C | 66% | 1008.4 hPa | 0 mm | 0.89 m/s, 78° | 0 W/m² | - |
| 1778031877 | 21.11° C | 66% | 1008.3 hPa | 0 mm | 0.89 m/s, 149° | 0 W/m² | - |
| 1778031573 | 21.11° C | 65% | 1008.1 hPa | 0 mm | 0.89 m/s, 166° | 0 W/m² | - |
| 1778031272 | 21.11° C | 65% | 1008.4 hPa | 0 mm | 0.89 m/s, 131° | 0 W/m² | - |
| 1778030967 | 21.67° C | 65% | 1008.2 hPa | 0 mm | 0.45 m/s, 149° | 0 W/m² | - |
| 1778030664 | 21.67° C | 65% | 1007.6 hPa | 0 mm | 0.89 m/s, 145° | 0 W/m² | - |
| 1778030361 | 21.67° C | 65% | 1008 hPa | 0 mm | 0.89 m/s, 120° | 0 W/m² | - |
| 1778030058 | 22.22° C | 65% | 1008.1 hPa | 0 mm | 0.89 m/s, 157° | 1 W/m² | - |
| 1778029755 | 22.22° C | 64% | 1007.7 hPa | 0 mm | 0.89 m/s, 156° | 1 W/m² | - |
| 1778029454 | 22.22° C | 64% | 1007.2 hPa | 0 mm | 0.45 m/s, 138° | 2 W/m² | - |
| 1778029149 | 22.78° C | 63% | 1007.4 hPa | 0 mm | 0.89 m/s, 161° | 4 W/m² | - |
| 1778028848 | 22.78° C | 64% | 1007.2 hPa | 0 mm | 0 m/s | 6 W/m² | - |
| 1778028542 | 22.78° C | 64% | 1007.2 hPa | 0 mm | 0.89 m/s, 160° | 10 W/m² | - |
| 1778028241 | 22.78° C | 63% | 1007.4 hPa | 0 mm | 0.89 m/s, 139° | 11 W/m² | - |
| 1778027937 | 22.78° C | 63% | 1007.1 hPa | 0 mm | 0.89 m/s, 157° | 10 W/m² | - |
| 1778027633 | 23.33° C | 63% | 1006.6 hPa | 0 mm | 0 m/s | 16 W/m² | - |
| 1778027330 | 23.33° C | 63% | 1006.3 hPa | 0 mm | 1.34 m/s, 140° | 9 W/m² | - |
* Rain latest hour (hover to see other rain measurements)
** Current wind speed in m/s (hover to see current wind gust speed)